Voltar ao catálogo

STARLINK-37029

AtivoComunicaçõesVLEO
NORAD 68271·PAYLOAD·🇺🇸 United States

Lançado Mar 19, 2026 de Vandenberg Space Force Base

Loading…

Próximas Passagens (próximas 24 horas)

TLE

AtualizadoSource: CelesTrak SupGP

Época: Sep 15, 2026, 04:27 UTC

1 68271C 26055K   26258.18590278  .00058458  00000+0  17269-2 0  2589
2 68271  53.1572 154.5375 0001296  83.0211  62.3289 15.34365268    16

Acompanhe STARLINK-37029 em tempo real com AllMySat

Download on the App Store